Location: Nebel
(54.6502°N, 8.3475°E)
Time: 20:20:03
(UTC+01:00)

Envisat - Pass Details

Date: 07 December 2022
Orbit: 763 x 765 km, 98.2° (Epoch: 08 February)

Event Time Altitude Azimuth Distance (km) Brightness Sun altitude
Rises 06:06:43 0° 10° (N) 3,249 6.2 -19.9°
Reaches altitude 10° 06:09:14 10° 1° (N) 2,318 5.4 -19.5°
Enters shadow 06:13:00 30° 316° (NW) 1,347 3.8 -19.0°
